STARLINK-4655 (53613 NORAD) Tracking and Keplerian Element Data

This shows tracking and keplerian element data for the satellite.

Feedback or suggestion? Click here.




ElementValue
Catalog53613
NameSTARLINK-4655
Epoch Orbit130
Epoch Day324.91667824
Epoch Year2022
RAAN242.6966
Inclination53.2159
Eccentricity0.0001757
Argument of Perigee60.8053
Mean Anonmoly278.605
Mean Motion15.08844703
Decay Rate-0.0001555
L11 53613U 22104AB 22324.91667824 -.00015550 00000+0 -96089-3 0 9995
L22 53613 53.2159 242.6966 0001757 60.8053 278.6050 15.08844703 1304



Live tracking and technical data element details for STARLINK-4655 (NORAD 53613). STARLINK-4655 can be tracked NOW for your location showing map with azimuth and elevation plus other details from your city location.







IsCatalogInMostPopularTable: catalog: 53613, numindb: 2
Update: records affected: 1



GetName: 53613 STARLINK-4655

Hit Count: updated at: Thu, 08 Dec 2022 19:55:36 GMT